Time,TemperatureF,DewpointF,PressureIn,WindDirection,WindDirectionDegrees,WindSpeedMPH,WindSpeedGustMPH,Humidity,HourlyPrecipIn,Conditions,Clouds,dailyrainin,SoftwareType,DateUTC
2013-07-03 00:02:00,69.4,66.0,30.07,East,82,0.0,-999.0,88,-99.99,,,0.01,weatherlink.com 1.10,2013-07-03 05:02:00,
2013-07-03 00:17:00,69.5,66.0,30.08,East,82,0.0,-999.0,88,-99.99,,,0.01,weatherlink.com 1.10,2013-07-03 05:17:00,
2013-07-03 00:47:00,69.7,66.0,30.07,East,82,0.0,-999.0,88,-99.99,,,0.01,weatherlink.com 1.10,2013-07-03 05:47:00,
2013-07-03 01:02:00,69.7,66.0,30.07,East,82,0.0,-999.0,88,-99.99,,,0.01,weatherlink.com 1.10,2013-07-03 06:02:00,
2013-07-03 01:17:00,68.8,66.0,30.07,East,82,1.0,-999.0,89,-99.99,,,0.01,weatherlink.com 1.10,2013-07-03 06:17:00,
2013-07-03 01:32:00,69.5,66.0,30.07,East,88,3.0,-999.0,88,-99.99,,,0.01,weatherlink.com 1.10,2013-07-03 06:32:00,
2013-07-03 01:47:00,69.9,66.0,30.07,East,90,2.0,-999.0,88,-99.99,,,0.01,weatherlink.com 1.10,2013-07-03 06:47:00,
2013-07-03 02:17:00,69.2,66.0,30.07,East,82,1.0,-999.0,89,-99.99,,,0.01,weatherlink.com 1.10,2013-07-03 07:17:00,
2013-07-03 02:32:00,68.9,66.0,30.06,East,82,2.0,-999.0,89,-99.99,,,0.01,weatherlink.com 1.10,2013-07-03 07:32:00,
2013-07-03 02:47:00,68.9,66.0,30.07,East,82,0.0,-999.0,89,-99.99,,,0.01,weatherlink.com 1.10,2013-07-03 07:47:00,
2013-07-03 03:02:00,69.1,66.0,30.07,East,82,0.0,-999.0,89,-99.99,,,0.01,weatherlink.com 1.10,2013-07-03 08:02:00,
2013-07-03 03:17:00,69.4,66.0,30.08,South,171,2.0,-999.0,89,-99.99,,,0.01,weatherlink.com 1.10,2013-07-03 08:17:00,
2013-07-03 03:32:00,69.8,67.0,30.09,SSE,153,0.0,-999.0,89,-99.99,,,0.01,weatherlink.com 1.10,2013-07-03 08:32:00,
2013-07-03 03:47:00,69.6,66.0,30.09,SSE,159,0.0,-999.0,89,-99.99,,,0.05,weatherlink.com 1.10,2013-07-03 08:47:00,
2013-07-03 04:17:00,68.9,65.0,30.09,South,190,4.0,-999.0,88,-99.99,,,0.12,weatherlink.com 1.10,2013-07-03 09:17:00,
2013-07-03 04:32:00,68.5,65.0,30.09,SSW,211,3.0,-999.0,88,-99.99,,,0.13,weatherlink.com 1.10,2013-07-03 09:32:00,
2013-07-03 04:47:00,68.5,65.0,30.09,WSW,243,0.0,-999.0,87,-99.99,,,0.14,weatherlink.com 1.10,2013-07-03 09:47:00,
2013-07-03 05:17:00,68.3,64.0,30.08,WSW,243,0.0,-999.0,87,-99.99,,,0.15,weatherlink.com 1.10,2013-07-03 10:17:00,
2013-07-03 05:33:00,68.3,64.0,30.08,WSW,243,0.0,-999.0,87,-99.99,,,0.16,weatherlink.com 1.10,2013-07-03 10:33:00,
2013-07-03 05:48:00,68.1,64.0,30.09,West,267,0.0,-999.0,87,-99.99,,,0.16,weatherlink.com 1.10,2013-07-03 10:48:00,
2013-07-03 06:03:00,68.1,64.0,30.10,West,267,1.0,-999.0,87,-99.99,,,0.16,weatherlink.com 1.10,2013-07-03 11:03:00,
2013-07-03 06:18:00,68.0,64.0,30.09,West,270,0.0,-999.0,87,-99.99,,,0.17,weatherlink.com 1.10,2013-07-03 11:18:00,
2013-07-03 06:48:00,68.5,64.0,30.10,West,276,0.0,-999.0,86,-99.99,,,0.17,weatherlink.com 1.10,2013-07-03 11:48:00,
2013-07-03 07:03:00,68.9,65.0,30.10,NE,34,2.0,-999.0,86,-99.99,,,0.17,weatherlink.com 1.10,2013-07-03 12:03:00,
2013-07-03 07:33:00,69.4,65.0,30.11,East,89,3.0,-999.0,87,-99.99,,,0.17,weatherlink.com 1.10,2013-07-03 12:33:00,
2013-07-03 08:03:00,70.8,67.0,30.13,ENE,68,3.0,-999.0,88,-99.99,,,0.17,weatherlink.com 1.10,2013-07-03 13:03:00,
2013-07-03 08:18:00,71.7,68.0,30.13,ENE,64,3.0,-999.0,88,-99.99,,,0.17,weatherlink.com 1.10,2013-07-03 13:18:00,
2013-07-03 08:33:00,72.7,68.0,30.13,ENE,65,0.0,-999.0,86,-99.99,,,0.17,weatherlink.com 1.10,2013-07-03 13:33:00,
2013-07-03 08:48:00,73.5,68.0,30.13,East,84,1.0,-999.0,84,-99.99,,,0.17,weatherlink.com 1.10,2013-07-03 13:48:00,
2013-07-03 09:03:00,73.7,69.0,30.12,East,98,6.0,-999.0,84,-99.99,,,0.17,weatherlink.com 1.10,2013-07-03 14:03:00,
2013-07-03 09:18:00,73.8,69.0,30.14,ESE,103,5.0,-999.0,84,-99.99,,,0.17,weatherlink.com 1.10,2013-07-03 14:18:00,
2013-07-03 09:33:00,74.4,69.0,30.14,East,98,2.0,-999.0,84,-99.99,,,0.17,weatherlink.com 1.10,2013-07-03 14:33:00,
2013-07-03 09:48:00,74.7,69.0,30.14,ENE,75,1.0,-999.0,83,-99.99,,,0.17,weatherlink.com 1.10,2013-07-03 14:48:00,
2013-07-03 10:18:00,75.0,68.0,30.14,East,96,2.0,-999.0,80,-99.99,,,0.17,weatherlink.com 1.10,2013-07-03 15:18:00,
2013-07-03 10:33:00,75.1,69.0,30.14,East,97,0.0,-999.0,81,-99.99,,,0.17,weatherlink.com 1.10,2013-07-03 15:33:00,
2013-07-03 10:48:00,75.0,69.0,30.14,ESE,104,0.0,-999.0,82,-99.99,,,0.17,weatherlink.com 1.10,2013-07-03 15:48:00,
2013-07-03 11:03:00,74.8,69.0,30.14,SE,129,4.0,-999.0,82,-99.99,,,0.17,weatherlink.com 1.10,2013-07-03 16:03:00,
2013-07-03 11:18:00,75.4,70.0,30.13,SE,145,1.0,-999.0,82,-99.99,,,0.17,weatherlink.com 1.10,2013-07-03 16:18:00,
2013-07-03 11:48:00,76.1,70.0,30.13,East,92,1.0,-999.0,81,-99.99,,,0.17,weatherlink.com 1.10,2013-07-03 16:48:00,
2013-07-03 12:03:00,75.6,70.0,30.13,ESE,121,8.0,-999.0,83,-99.99,,,0.17,weatherlink.com 1.10,2013-07-03 17:03:00,
2013-07-03 12:18:00,75.7,70.0,30.13,ESE,117,6.0,-999.0,82,-99.99,,,0.17,weatherlink.com 1.10,2013-07-03 17:18:00,
2013-07-03 12:33:00,76.1,71.0,30.13,ESE,118,6.0,-999.0,83,-99.99,,,0.17,weatherlink.com 1.10,2013-07-03 17:33:00,
2013-07-03 12:48:00,77.7,71.0,30.12,SE,126,6.0,-999.0,80,-99.99,,,0.17,weatherlink.com 1.10,2013-07-03 17:48:00,
2013-07-03 13:03:00,77.8,70.0,30.11,SSE,159,1.0,-999.0,78,-99.99,,,0.17,weatherlink.com 1.10,2013-07-03 18:03:00,
2013-07-03 13:18:00,77.3,70.0,30.11,ESE,106,4.0,-999.0,79,-99.99,,,0.17,weatherlink.com 1.10,2013-07-03 18:18:00,
2013-07-03 13:48:00,77.6,71.0,30.11,ESE,122,4.0,-999.0,79,-99.99,,,0.17,weatherlink.com 1.10,2013-07-03 18:48:00,
2013-07-03 14:03:00,76.4,70.0,30.12,SE,142,6.0,-999.0,81,-99.99,,,0.17,weatherlink.com 1.10,2013-07-03 19:03:00,
2013-07-03 14:18:00,76.1,71.0,30.12,SSE,153,8.0,-999.0,83,-99.99,,,0.17,weatherlink.com 1.10,2013-07-03 19:18:00,
2013-07-03 14:33:00,75.8,70.0,30.12,SSE,151,10.0,-999.0,81,-99.99,,,0.17,weatherlink.com 1.10,2013-07-03 19:33:00,
2013-07-03 14:48:00,75.5,70.0,30.11,SSE,163,5.0,-999.0,84,-99.99,,,0.17,weatherlink.com 1.10,2013-07-03 19:48:00,
2013-07-03 15:03:00,74.6,70.0,30.11,SSE,147,11.0,-999.0,85,-99.99,,,0.17,weatherlink.com 1.10,2013-07-03 20:03:00,
2013-07-03 15:18:00,73.9,70.0,30.09,ESE,115,4.0,-999.0,87,-99.99,,,0.17,weatherlink.com 1.10,2013-07-03 20:18:00,
2013-07-03 15:33:00,73.6,70.0,30.09,SSE,150,5.0,-999.0,87,-99.99,,,0.17,weatherlink.com 1.10,2013-07-03 20:33:00,
2013-07-03 15:48:00,72.9,69.0,30.09,SSE,148,6.0,-999.0,87,-99.99,,,0.17,weatherlink.com 1.10,2013-07-03 20:48:00,
2013-07-03 16:03:00,73.2,69.0,30.10,SSE,148,5.0,-999.0,86,-99.99,,,0.17,weatherlink.com 1.10,2013-07-03 21:03:00,
2013-07-03 16:33:00,72.5,68.0,30.11,SE,144,8.0,-999.0,86,-99.99,,,0.17,weatherlink.com 1.10,2013-07-03 21:33:00,
2013-07-03 16:48:00,72.6,68.0,30.11,SE,131,7.0,-999.0,85,-99.99,,,0.00,weatherlink.com 1.10,2013-07-03 21:48:00,
2013-07-03 17:03:00,72.5,67.0,30.11,ESE,120,8.0,-999.0,84,-99.99,,,0.00,weatherlink.com 1.10,2013-07-03 22:03:00,
2013-07-03 17:18:00,72.6,68.0,30.11,SE,134,6.0,-999.0,84,-99.99,,,0.00,weatherlink.com 1.10,2013-07-03 22:18:00,
2013-07-03 17:33:00,72.6,68.0,30.11,East,96,8.0,-999.0,84,-99.99,,,0.00,weatherlink.com 1.10,2013-07-03 22:33:00,
2013-07-03 17:48:00,72.8,68.0,30.11,ESE,115,6.0,-999.0,85,-99.99,,,0.00,weatherlink.com 1.10,2013-07-03 22:48:00,
2013-07-03 18:03:00,72.9,68.0,30.11,ESE,105,8.0,-999.0,85,-99.99,,,0.00,weatherlink.com 1.10,2013-07-03 23:03:00,
2013-07-03 18:18:00,73.0,68.0,30.11,SE,126,8.0,-999.0,85,-99.99,,,0.00,weatherlink.com 1.10,2013-07-03 23:18:00,
2013-07-03 18:33:00,72.9,69.0,30.11,ESE,117,4.0,-999.0,86,-99.99,,,0.00,weatherlink.com 1.10,2013-07-03 23:33:00,
2013-07-03 18:48:00,72.8,68.0,30.12,ESE,106,0.0,-999.0,86,-99.99,,,0.00,weatherlink.com 1.10,2013-07-03 23:48:00,
2013-07-03 19:03:00,72.3,68.0,30.11,East,80,3.0,-999.0,87,-99.99,,,0.00,weatherlink.com 1.10,2013-07-04 00:03:00,
2013-07-03 19:18:00,72.0,68.0,30.11,East,86,6.0,-999.0,87,-99.99,,,0.00,weatherlink.com 1.10,2013-07-04 00:18:00,
2013-07-03 19:33:00,71.7,68.0,30.11,ENE,71,3.0,-999.0,88,-99.99,,,0.00,weatherlink.com 1.10,2013-07-04 00:33:00,
2013-07-03 20:03:00,71.1,67.0,30.12,SE,136,6.0,-999.0,88,-99.99,,,0.00,weatherlink.com 1.10,2013-07-04 01:03:00,
2013-07-03 20:18:00,70.8,67.0,30.12,East,100,2.0,-999.0,88,-99.99,,,0.00,weatherlink.com 1.10,2013-07-04 01:18:00,
2013-07-03 20:33:00,70.6,67.0,30.13,ESE,107,6.0,-999.0,88,-99.99,,,0.00,weatherlink.com 1.10,2013-07-04 01:33:00,
2013-07-03 20:49:00,70.5,67.0,30.13,East,98,5.0,-999.0,88,-99.99,,,0.00,weatherlink.com 1.10,2013-07-04 01:49:00,
2013-07-03 21:19:00,70.3,67.0,30.14,ESE,107,6.0,-999.0,88,-99.99,,,0.00,weatherlink.com 1.10,2013-07-04 02:19:00,
2013-07-03 21:34:00,70.2,67.0,30.14,East,101,4.0,-999.0,88,-99.99,,,0.00,weatherlink.com 1.10,2013-07-04 02:34:00,
2013-07-03 21:49:00,70.0,66.0,30.14,East,97,8.0,-999.0,88,-99.99,,,0.00,weatherlink.com 1.10,2013-07-04 02:49:00,
2013-07-03 22:04:00,70.0,66.0,30.14,East,81,4.0,-999.0,88,-99.99,,,0.00,weatherlink.com 1.10,2013-07-04 03:04:00,
2013-07-03 22:34:00,70.2,67.0,30.14,ESE,113,11.0,-999.0,88,-99.99,,,0.00,weatherlink.com 1.10,2013-07-04 03:34:00,
2013-07-03 22:49:00,70.2,67.0,30.15,SE,140,9.0,-999.0,88,-99.99,,,0.00,weatherlink.com 1.10,2013-07-04 03:49:00,
2013-07-03 23:04:00,70.1,67.0,30.15,East,94,5.0,-999.0,88,-99.99,,,0.00,weatherlink.com 1.10,2013-07-04 04:04:00,
2013-07-03 23:19:00,70.1,67.0,30.15,ESE,103,6.0,-999.0,88,-99.99,,,0.00,weatherlink.com 1.10,2013-07-04 04:19:00,
2013-07-03 23:34:00,70.1,67.0,30.14,East,84,6.0,-999.0,88,-99.99,,,0.00,weatherlink.com 1.10,2013-07-04 04:34:00,
2013-07-03 23:49:00,70.0,66.0,30.14,ENE,74,4.0,-999.0,88,-99.99,,,0.00,weatherlink.com 1.10,2013-07-04 04:49:00,